Tabellarische Ansicht des 21.2.2010


Die einzelnen Werte des Tages

Uhrzeit Temperatur Luftdruck Luftfeuchte Wind Hi-Wind Taupunkt THW Index Wind Chill Heat Index Solar- strahlung Regen

00:00

-0.4 C

997.3 hpa

90 %

8.0 km/h aus 116

11.3 km/h aus WSW

-1.9 C

-3.4 C

-3.3 C

-0.6 C

0 W/m

0.00 mm

00:05

-0.4 C

997.3 hpa

90 %

6.4 km/h aus 115

11.3 km/h aus WSW

-1.8 C

-2.7 C

-2.6 C

-0.5 C

0 W/m

0.00 mm

00:10

-0.3 C

997.3 hpa

90 %

8.0 km/h aus 117

16.1 km/h aus WSW

-1.8 C

-3.2 C

-3.1 C

-0.4 C

0 W/m

0.00 mm

00:15

-0.3 C

997.4 hpa

90 %

9.7 km/h aus 116

16.1 km/h aus WSW

-1.7 C

-3.7 C

-3.6 C

-0.4 C

0 W/m

0.00 mm

00:20

-0.3 C

997.4 hpa

90 %

8.0 km/h aus 116

16.1 km/h aus WSW

-1.7 C

-3.2 C

-3.1 C

-0.4 C

0 W/m

0.00 mm

00:25

-0.2 C

997.4 hpa

90 %

11.3 km/h aus 117

19.3 km/h aus SW

-1.6 C

-3.9 C

-3.8 C

-0.2 C

0 W/m

0.00 mm

00:30

-0.1 C

997.4 hpa

90 %

9.7 km/h aus 117

14.5 km/h aus SW

-1.5 C

-3.3 C

-3.3 C

-0.1 C

0 W/m

0.00 mm

00:35

0.1 C

997.4 hpa

90 %

11.3 km/h aus 117

20.9 km/h aus SW

-1.4 C

-3.6 C

-3.6 C

0.0 C

0 W/m

0.00 mm

00:40

0.1 C

997.4 hpa

90 %

11.3 km/h aus 117

20.9 km/h aus SW

-1.3 C

-3.6 C

-3.5 C

0.1 C

0 W/m

0.00 mm

00:45

0.2 C

997.4 hpa

89 %

14.5 km/h aus 117

20.9 km/h aus WSW

-1.4 C

-4.1 C

-4.0 C

0.1 C

0 W/m

0.00 mm

00:50

0.3 C

997.4 hpa

89 %

11.3 km/h aus 117

20.9 km/h aus SSW

-1.3 C

-3.4 C

-3.3 C

0.2 C

0 W/m

0.00 mm

00:55

0.3 C

997.4 hpa

89 %

11.3 km/h aus 117

19.3 km/h aus S

-1.3 C

-3.3 C

-3.2 C

0.2 C

0 W/m

0.00 mm

01:00

0.4 C

997.6 hpa

89 %

11.3 km/h aus 117

22.5 km/h aus SSW

-1.2 C

-3.3 C

-3.2 C

0.3 C

0 W/m

0.00 mm

01:05

0.4 C

997.6 hpa

89 %

11.3 km/h aus 117

19.3 km/h aus SSW

-1.2 C

-3.3 C

-3.2 C

0.3 C

0 W/m

0.00 mm

01:10

0.4 C

997.6 hpa

89 %

8.0 km/h aus 116

16.1 km/h aus SSW

-1.2 C

-2.4 C

-2.3 C

0.3 C

0 W/m

0.00 mm

01:15

0.4 C

997.8 hpa

88 %

6.4 km/h aus 117

16.1 km/h aus SW

-1.4 C

-1.8 C

-1.7 C

0.3 C

0 W/m

0.00 mm

01:20

0.4 C

997.8 hpa

88 %

6.4 km/h aus 116

16.1 km/h aus SW

-1.4 C

-1.8 C

-1.7 C

0.3 C

0 W/m

0.00 mm

01:25

0.4 C

997.8 hpa

88 %

8.0 km/h aus 116

16.1 km/h aus SW

-1.4 C

-2.4 C

-2.3 C

0.3 C

0 W/m

0.00 mm

01:30

0.4 C

997.9 hpa

88 %

8.0 km/h aus 115

16.1 km/h aus SW

-1.4 C

-2.4 C

-2.3 C

0.3 C

0 W/m

0.00 mm

01:35

0.4 C

997.9 hpa

88 %

8.0 km/h aus 117

16.1 km/h aus SW

-1.3 C

-2.3 C

-2.2 C

0.3 C

0 W/m

0.00 mm

01:40

0.4 C

997.9 hpa

88 %

8.0 km/h aus 117

16.1 km/h aus SW

-1.3 C

-2.3 C

-2.2 C

0.3 C

0 W/m

0.00 mm

01:45

0.5 C

997.9 hpa

88 %

8.0 km/h aus 117

17.7 km/h aus SSW

-1.3 C

-2.3 C

-2.2 C

0.4 C

0 W/m

0.00 mm

01:50

0.5 C

997.9 hpa

88 %

6.4 km/h aus 117

11.3 km/h aus SSW

-1.3 C

-1.7 C

-1.6 C

0.4 C

0 W/m

0.00 mm

01:55

0.5 C

997.9 hpa

88 %

8.0 km/h aus 117

16.1 km/h aus SSW

-1.3 C

-2.3 C

-2.2 C

0.4 C

0 W/m

0.00 mm

02:00

0.5 C

997.9 hpa

88 %

8.0 km/h aus 116

16.1 km/h aus SSW

-1.3 C

-2.3 C

-2.2 C

0.4 C

0 W/m

0.00 mm

02:05

0.5 C

997.9 hpa

88 %

6.4 km/h aus 116

12.9 km/h aus SW

-1.3 C

-1.7 C

-1.6 C

0.4 C

0 W/m

0.00 mm

02:10

0.5 C

997.9 hpa

88 %

8.0 km/h aus 117

14.5 km/h aus SW

-1.3 C

-2.3 C

-2.2 C

0.4 C

0 W/m

0.00 mm

02:15

0.5 C

998.0 hpa

88 %

8.0 km/h aus 117

11.3 km/h aus SW

-1.3 C

-2.3 C

-2.2 C

0.4 C

0 W/m

0.00 mm

02:20

0.5 C

998.0 hpa

88 %

9.7 km/h aus 117

17.7 km/h aus SSW

-1.3 C

-2.7 C

-2.6 C

0.4 C

0 W/m

0.00 mm

02:25

0.5 C

998.0 hpa

88 %

9.7 km/h aus 116

16.1 km/h aus SSW

-1.3 C

-2.7 C

-2.6 C

0.4 C

0 W/m

0.00 mm

02:30

0.5 C

998.0 hpa

88 %

8.0 km/h aus 118

17.7 km/h aus SSW

-1.3 C

-2.3 C

-2.2 C

0.4 C

0 W/m

0.00 mm

02:35

0.4 C

998.0 hpa

88 %

8.0 km/h aus 117

16.1 km/h aus SSW

-1.3 C

-2.3 C

-2.2 C

0.3 C

0 W/m

0.00 mm

02:40

0.4 C

998.0 hpa

88 %

9.7 km/h aus 117

16.1 km/h aus SSW

-1.3 C

-2.8 C

-2.7 C

0.3 C

0 W/m

0.00 mm

02:45

0.4 C

998.0 hpa

88 %

9.7 km/h aus 117

16.1 km/h aus SSW

-1.3 C

-2.8 C

-2.7 C

0.3 C

0 W/m

0.00 mm

02:50

0.4 C

998.0 hpa

88 %

6.4 km/h aus 117

12.9 km/h aus SSW

-1.4 C

-1.8 C

-1.7 C

0.3 C

0 W/m

0.00 mm

02:55

0.4 C

998.0 hpa

88 %

4.8 km/h aus 115

11.3 km/h aus SW

-1.4 C

-1.2 C

-1.1 C

0.3 C

0 W/m

0.00 mm

03:00

0.4 C

998.0 hpa

88 %

4.8 km/h aus 116

9.7 km/h aus SW

-1.4 C

-1.2 C

-1.1 C

0.3 C

0 W/m

0.00 mm

03:05

0.4 C

998.0 hpa

88 %

3.2 km/h aus 117

8.0 km/h aus SW

-1.4 C

-0.3 C

-0.2 C

0.3 C

0 W/m

0.00 mm

03:10

0.3 C

998.0 hpa

88 %

4.8 km/h aus 117

9.7 km/h aus SW

-1.4 C

-1.2 C

-1.1 C

0.2 C

0 W/m

0.00 mm

03:15

0.3 C

998.0 hpa

88 %

4.8 km/h aus 117

9.7 km/h aus SW

-1.4 C

-1.2 C

-1.1 C

0.2 C

0 W/m

0.00 mm

03:20

0.3 C

998.0 hpa

88 %

6.4 km/h aus 116

11.3 km/h aus SW

-1.4 C

-1.9 C

-1.8 C

0.2 C

0 W/m

0.00 mm

03:25

0.3 C

998.0 hpa

89 %

4.8 km/h aus 115

9.7 km/h aus SW

-1.3 C

-1.2 C

-1.1 C

0.2 C

0 W/m

0.00 mm

03:30

0.3 C

998.0 hpa

89 %

4.8 km/h aus 117

8.0 km/h aus SW

-1.3 C

-1.2 C

-1.1 C

0.2 C

0 W/m

0.00 mm

03:35

0.3 C

998.0 hpa

89 %

4.8 km/h aus 116

8.0 km/h aus SW

-1.3 C

-1.2 C

-1.1 C

0.2 C

0 W/m

0.00 mm

03:40

0.3 C

998.0 hpa

89 %

4.8 km/h aus 116

8.0 km/h aus SW

-1.3 C

-1.3 C

-1.2 C

0.2 C

0 W/m

0.00 mm

03:45

0.3 C

998.0 hpa

89 %

4.8 km/h aus 117

9.7 km/h aus SW

-1.3 C

-1.3 C

-1.2 C

0.2 C

0 W/m

0.00 mm

03:50

0.2 C

998.0 hpa

88 %

6.4 km/h aus 117

9.7 km/h aus SW

-1.5 C

-2.1 C

-1.9 C

0.1 C

0 W/m

0.00 mm

03:55

0.2 C

998.0 hpa

89 %

4.8 km/h aus 117

8.0 km/h aus SW

-1.4 C

-1.3 C

-1.3 C

0.1 C

0 W/m

0.00 mm

04:00

0.2 C

998.2 hpa

89 %

3.2 km/h aus 117

8.0 km/h aus SW

-1.4 C

-0.4 C

-0.4 C

0.1 C

0 W/m

0.00 mm

04:05

0.1 C

998.2 hpa

89 %

1.6 km/h aus 117

4.8 km/h aus SW

-1.5 C

0.1 C

0.1 C

0.1 C

0 W/m

0.00 mm

04:10

0.1 C

998.2 hpa

89 %

1.6 km/h aus 117

4.8 km/h aus SW

-1.5 C

0.0 C

0.1 C

0.0 C

0 W/m

0.00 mm

04:15

0.1 C

998.2 hpa

89 %

4.8 km/h aus 117

11.3 km/h aus SW

-1.5 C

-1.5 C

-1.4 C

0.0 C

0 W/m

0.00 mm

04:20

0.1 C

998.2 hpa

89 %

4.8 km/h aus 117

11.3 km/h aus SW

-1.5 C

-1.5 C

-1.4 C

0.0 C

0 W/m

0.00 mm

04:25

0.1 C

998.2 hpa

89 %

4.8 km/h aus 116

8.0 km/h aus SW

-1.5 C

-1.5 C

-1.4 C

0.0 C

0 W/m

0.00 mm

04:30

0.1 C

998.0 hpa

89 %

4.8 km/h aus 116

9.7 km/h aus SW

-1.5 C

-1.5 C

-1.4 C

0.0 C

0 W/m

0.00 mm

04:35

0.1 C

998.0 hpa

89 %

3.2 km/h aus 116

6.4 km/h aus SW

-1.5 C

-0.6 C

-0.5 C

0.0 C

0 W/m

0.00 mm

04:40

0.0 C

998.0 hpa

89 %

3.2 km/h aus 117

6.4 km/h aus SW

-1.6 C

-0.6 C

-0.6 C

-0.1 C

0 W/m

0.00 mm

04:45

-0.1 C

998.0 hpa

89 %

1.6 km/h aus 116

6.4 km/h aus SW

-1.7 C

-0.1 C

-0.1 C

-0.1 C

0 W/m

0.00 mm

04:50

-0.1 C

998.0 hpa

89 %

1.6 km/h aus 117

4.8 km/h aus SW

-1.7 C

-0.2 C

-0.1 C

-0.2 C

0 W/m

0.00 mm

04:55

-0.2 C

998.0 hpa

89 %

1.6 km/h aus 117

4.8 km/h aus SW

-1.8 C

-0.2 C

-0.2 C

-0.2 C

0 W/m

0.00 mm

05:00

-0.2 C

998.0 hpa

89 %

3.2 km/h aus 116

4.8 km/h aus SW

-1.8 C

-0.9 C

-0.8 C

-0.3 C

0 W/m

0.00 mm

05:05

-0.2 C

998.0 hpa

89 %

3.2 km/h aus 117

4.8 km/h aus SW

-1.8 C

-0.9 C

-0.8 C

-0.3 C

0 W/m

0.00 mm

05:10

-0.2 C

998.0 hpa

89 %

3.2 km/h aus 116

4.8 km/h aus SW

-1.8 C

-0.9 C

-0.8 C

-0.3 C

0 W/m

0.00 mm

05:15

-0.2 C

998.0 hpa

89 %

3.2 km/h aus 115

8.0 km/h aus SW

-1.8 C

-0.9 C

-0.8 C

-0.3 C

0 W/m

0.00 mm

05:20

-0.2 C

998.0 hpa

90 %

4.8 km/h aus 117

8.0 km/h aus SW

-1.7 C

-1.8 C

-1.7 C

-0.3 C

0 W/m

0.00 mm

05:25

-0.2 C

998.0 hpa

90 %

6.4 km/h aus 117

11.3 km/h aus SW

-1.6 C

-2.4 C

-2.4 C

-0.2 C

0 W/m

0.00 mm

05:30

-0.1 C

998.0 hpa

90 %

4.8 km/h aus 117

8.0 km/h aus SW

-1.6 C

-1.7 C

-1.6 C

-0.2 C

0 W/m

0.00 mm

05:35

-0.1 C

998.0 hpa

90 %

3.2 km/h aus 116

8.0 km/h aus SW

-1.6 C

-0.8 C

-0.7 C

-0.2 C

0 W/m

0.00 mm

05:40

-0.1 C

998.0 hpa

90 %

4.8 km/h aus 117

6.4 km/h aus SW

-1.6 C

-1.7 C

-1.6 C

-0.2 C

0 W/m

0.00 mm

05:45

-0.1 C

998.0 hpa

90 %

3.2 km/h aus 117

8.0 km/h aus SW

-1.6 C

-0.8 C

-0.7 C

-0.2 C

0 W/m

0.00 mm

05:50

-0.1 C

998.0 hpa

90 %

3.2 km/h aus 117

4.8 km/h aus SW

-1.6 C

-0.8 C

-0.7 C

-0.2 C

0 W/m

0.00 mm

05:55

-0.1 C

998.0 hpa

90 %

3.2 km/h aus 117

6.4 km/h aus SW

-1.6 C

-0.8 C

-0.7 C

-0.2 C

0 W/m

0.00 mm

06:00

-0.1 C

997.9 hpa

90 %

1.6 km/h aus 117

4.8 km/h aus SW

-1.6 C

-0.2 C

-0.1 C

-0.2 C

0 W/m

0.00 mm

06:05

-0.2 C

997.9 hpa

90 %

1.6 km/h aus 116

3.2 km/h aus SW

-1.6 C

-0.2 C

-0.2 C

-0.2 C

0 W/m

0.00 mm

06:10

-0.2 C

997.9 hpa

90 %

0.0 km/h aus 117

3.2 km/h aus SW

-1.6 C

-0.2 C

-0.2 C

-0.2 C

0 W/m

0.00 mm

06:15

-0.2 C

998.0 hpa

90 %

0.0 km/h aus 116

3.2 km/h aus SW

-1.7 C

-0.3 C

-0.2 C

-0.3 C

0 W/m

0.00 mm

06:20

-0.3 C

998.0 hpa

90 %

1.6 km/h aus 117

3.2 km/h aus SW

-1.7 C

-0.4 C

-0.3 C

-0.4 C

0 W/m

0.00 mm

06:25

-0.3 C

998.0 hpa

90 %

1.6 km/h aus 116

3.2 km/h aus SW

-1.8 C

-0.4 C

-0.3 C

-0.4 C

0 W/m

0.00 mm

06:30

-0.4 C

998.0 hpa

90 %

3.2 km/h aus 117

4.8 km/h aus SW

-1.8 C

-1.1 C

-1.0 C

-0.5 C

0 W/m

0.00 mm

06:35

-0.4 C

998.0 hpa

90 %

1.6 km/h aus 117

4.8 km/h aus SW

-1.9 C

-0.6 C

-0.4 C

-0.6 C

0 W/m

0.00 mm

06:40

-0.4 C

998.0 hpa

90 %

1.6 km/h aus 117

3.2 km/h aus SW

-1.9 C

-0.6 C

-0.4 C

-0.6 C

0 W/m

0.00 mm

06:45

-0.5 C

997.9 hpa

90 %

1.6 km/h aus 117

4.8 km/h aus SW

-1.9 C

-0.6 C

-0.5 C

-0.6 C

0 W/m

0.00 mm

06:50

-0.6 C

997.9 hpa

90 %

1.6 km/h aus 117

3.2 km/h aus SW

-2.0 C

-0.7 C

-0.6 C

-0.7 C

0 W/m

0.00 mm

06:55

-0.6 C

997.9 hpa

90 %

0.0 km/h aus 117

1.6 km/h aus SW

-2.0 C

-0.7 C

-0.6 C

-0.7 C

0 W/m

0.00 mm

07:00

-0.6 C

997.9 hpa

90 %

0.0 km/h aus 117

0.0 km/h aus ---

-2.0 C

-0.7 C

-0.6 C

-0.7 C

0 W/m

0.00 mm

07:05

-0.7 C

997.9 hpa

90 %

0.0 km/h aus 117

0.0 km/h aus ---

-2.2 C

-0.8 C

-0.7 C

-0.8 C

0 W/m

0.00 mm

07:10

-0.7 C

997.9 hpa

90 %

0.0 km/h aus 116

0.0 km/h aus ---

-2.2 C

-0.8 C

-0.7 C

-0.8 C

0 W/m

0.00 mm

07:15

-0.7 C

998.0 hpa

90 %

0.0 km/h aus 117

0.0 km/h aus ---

-2.2 C

-0.8 C

-0.7 C

-0.8 C

0 W/m

0.00 mm

07:20

-0.7 C

998.0 hpa

90 %

0.0 km/h aus 117

3.2 km/h aus SW

-2.2 C

-0.8 C

-0.7 C

-0.8 C

0 W/m

0.00 mm

07:25

-0.8 C

998.0 hpa

90 %

0.0 km/h aus 117

1.6 km/h aus SW

-2.2 C

-0.9 C

-0.8 C

-0.9 C

0 W/m

0.00 mm

07:30

-0.8 C

998.1 hpa

90 %

0.0 km/h aus 116

3.2 km/h aus SW

-2.2 C

-0.9 C

-0.8 C

-0.9 C

0 W/m

0.00 mm

07:35

-0.8 C

998.1 hpa

90 %

0.0 km/h aus 117

3.2 km/h aus SW

-2.2 C

-0.9 C

-0.8 C

-0.9 C

0 W/m

0.00 mm

07:40

-0.8 C

998.1 hpa

90 %

1.6 km/h aus 116

3.2 km/h aus SW

-2.2 C

-0.9 C

-0.8 C

-0.9 C

0 W/m

0.00 mm

07:45

-0.8 C

998.1 hpa

90 %

1.6 km/h aus 117

3.2 km/h aus SW

-2.2 C

-0.9 C

-0.8 C

-0.9 C

0 W/m

0.00 mm

07:50

-0.8 C

998.1 hpa

90 %

1.6 km/h aus 118

3.2 km/h aus SW

-2.3 C

-0.9 C

-0.8 C

-0.9 C

0 W/m

0.00 mm

07:55

-0.8 C

998.1 hpa

90 %

1.6 km/h aus 116

4.8 km/h aus SW

-2.3 C

-0.9 C

-0.8 C

-0.9 C

0 W/m

0.00 mm

08:00

-0.9 C

998.3 hpa

90 %

1.6 km/h aus 116

3.2 km/h aus SW

-2.3 C

-1.0 C

-0.9 C

-1.0 C

0 W/m

0.00 mm

08:05

-0.9 C

998.3 hpa

90 %

0.0 km/h aus 117

0.0 km/h aus ---

-2.3 C

-1.0 C

-0.9 C

-1.0 C

0 W/m

0.00 mm

08:10

-0.9 C

998.3 hpa

90 %

0.0 km/h aus 117

3.2 km/h aus SW

-2.4 C

-1.1 C

-0.9 C

-1.1 C

0 W/m

0.00 mm

08:15

-0.9 C

998.4 hpa

90 %

0.0 km/h aus 117

1.6 km/h aus SW

-2.4 C

-1.1 C

-0.9 C

-1.1 C

0 W/m

0.00 mm

08:20

-0.8 C

998.4 hpa

91 %

3.2 km/h aus 117

4.8 km/h aus SW

-2.1 C

-1.6 C

-1.5 C

-0.9 C

0 W/m

0.00 mm

08:25

-0.8 C

998.4 hpa

91 %

1.6 km/h aus 116

4.8 km/h aus SW

-2.1 C

-0.9 C

-0.8 C

-0.9 C

0 W/m

0.00 mm

08:30

-0.7 C

998.4 hpa

91 %

0.0 km/h aus 117

3.2 km/h aus SW

-2.0 C

-0.8 C

-0.7 C

-0.8 C

0 W/m

0.00 mm

08:35

-0.6 C

998.4 hpa

91 %

0.0 km/h aus 116

1.6 km/h aus SW

-1.9 C

-0.7 C

-0.6 C

-0.7 C

0 W/m

0.00 mm

08:40

-0.6 C

998.4 hpa

91 %

0.0 km/h aus 117

0.0 km/h aus ---

-1.8 C

-0.7 C

-0.6 C

-0.7 C

0 W/m

0.00 mm

08:45

-0.4 C

998.4 hpa

91 %

0.0 km/h aus 117

1.6 km/h aus SW

-1.7 C

-0.6 C

-0.4 C

-0.6 C

0 W/m

0.00 mm

08:50

-0.3 C

998.4 hpa

91 %

0.0 km/h aus 117

1.6 km/h aus SW

-1.6 C

-0.4 C

-0.3 C

-0.4 C

0 W/m

0.00 mm

08:55

-0.2 C

998.4 hpa

91 %

0.0 km/h aus 118

1.6 km/h aus SW

-1.5 C

-0.3 C

-0.2 C

-0.3 C

0 W/m

0.00 mm

09:00

-0.1 C

998.4 hpa

91 %

0.0 km/h aus 117

0.0 km/h aus ---

-1.4 C

-0.2 C

-0.1 C

-0.2 C

0 W/m

0.00 mm

09:05

0.1 C

998.4 hpa

92 %

0.0 km/h aus 117

0.0 km/h aus ---

-1.1 C

0.0 C

0.1 C

0.0 C

0 W/m

0.00 mm

09:10

0.2 C

998.4 hpa

92 %

0.0 km/h aus 116

0.0 km/h aus ---

-1.0 C

0.1 C

0.2 C

0.1 C

0 W/m

0.00 mm

09:15

0.3 C

998.4 hpa

92 %

0.0 km/h aus 117

0.0 km/h aus ---

-0.8 C

0.3 C

0.3 C

0.3 C

0 W/m

0.00 mm

09:20

0.4 C

998.4 hpa

92 %

0.0 km/h aus 117

0.0 km/h aus ---

-0.7 C

0.4 C

0.4 C

0.4 C

0 W/m

0.00 mm

09:25

0.6 C

998.4 hpa

92 %

0.0 km/h aus 117

4.8 km/h aus SW

-0.5 C

0.5 C

0.6 C

0.5 C

0 W/m

0.00 mm

09:30

0.7 C

998.4 hpa

92 %

1.6 km/h aus 117

4.8 km/h aus SW

-0.5 C

0.6 C

0.7 C

0.6 C

0 W/m

0.00 mm

09:35

0.7 C

998.4 hpa

92 %

3.2 km/h aus 117

6.4 km/h aus SW

-0.4 C

0.1 C

0.2 C

0.6 C

0 W/m

0.00 mm

09:40

0.8 C

998.4 hpa

91 %

3.2 km/h aus 115

6.4 km/h aus SW

-0.5 C

0.2 C

0.3 C

0.7 C

0 W/m

0.00 mm

09:45

0.8 C

998.5 hpa

91 %

1.6 km/h aus 117

4.8 km/h aus SW

-0.5 C

0.7 C

0.8 C

0.7 C

0 W/m

0.00 mm

09:50

0.9 C

998.5 hpa

91 %

1.6 km/h aus 117

6.4 km/h aus SW

-0.4 C

0.8 C

0.9 C

0.8 C

0 W/m

0.00 mm

09:55

0.9 C

998.5 hpa

91 %

0.0 km/h aus 116

1.6 km/h aus SW

-0.4 C

0.8 C

0.9 C

0.8 C

0 W/m

0.00 mm

10:00

1.0 C

998.5 hpa

91 %

0.0 km/h aus 117

1.6 km/h aus SW

-0.3 C

0.9 C

1.0 C

0.9 C

0 W/m

0.00 mm

10:05

1.1 C

998.5 hpa

90 %

1.6 km/h aus 117

8.0 km/h aus SW

-0.3 C

1.0 C

1.1 C

1.0 C

0 W/m

0.00 mm

10:10

1.0 C

998.5 hpa

89 %

1.6 km/h aus 117

3.2 km/h aus SW

-0.6 C

0.9 C

1.0 C

0.9 C

0 W/m

0.00 mm

10:15

1.0 C

998.4 hpa

89 %

1.6 km/h aus 116

4.8 km/h aus SW

-0.6 C

0.9 C

1.0 C

0.9 C

0 W/m

0.00 mm

10:20

1.1 C

998.4 hpa

88 %

1.6 km/h aus 115

3.2 km/h aus SW

-0.7 C

0.9 C

1.1 C

0.9 C

0 W/m

0.00 mm

10:25

1.3 C

998.4 hpa

87 %

0.0 km/h aus 117

1.6 km/h aus SW

-0.6 C

1.2 C

1.3 C

1.2 C

0 W/m

0.00 mm

10:30

1.3 C

998.4 hpa

86 %

1.6 km/h aus 117

4.8 km/h aus SW

-0.8 C

1.2 C

1.3 C

1.2 C

0 W/m

0.00 mm

10:35

1.6 C

998.4 hpa

86 %

1.6 km/h aus 117

4.8 km/h aus SW

-0.5 C

1.5 C

1.6 C

1.5 C

0 W/m

0.00 mm

10:40

1.8 C

998.4 hpa

84 %

0.0 km/h aus 117

4.8 km/h aus SW

-0.6 C

1.7 C

1.8 C

1.7 C

0 W/m

0.00 mm

10:45

1.8 C

998.4 hpa

85 %

1.6 km/h aus 117

6.4 km/h aus SW

-0.4 C

1.7 C

1.8 C

1.7 C

0 W/m

0.00 mm

10:50

1.7 C

998.4 hpa

84 %

3.2 km/h aus 116

4.8 km/h aus SW

-0.7 C

1.2 C

1.3 C

1.6 C

0 W/m

0.00 mm

10:55

1.6 C

998.4 hpa

83 %

3.2 km/h aus 117

6.4 km/h aus SW

-1.0 C

1.1 C

1.2 C

1.5 C

0 W/m

0.00 mm

11:00

1.5 C

998.4 hpa

82 %

6.4 km/h aus 117

11.3 km/h aus SSW

-1.2 C

-0.6 C

-0.4 C

1.3 C

0 W/m

0.00 mm

11:05

1.6 C

998.4 hpa

83 %

6.4 km/h aus 118

12.9 km/h aus SSW

-1.0 C

-0.6 C

-0.4 C

1.4 C

0 W/m

0.00 mm

11:10

1.5 C

998.4 hpa

82 %

6.4 km/h aus 116

16.1 km/h aus SSW

-1.2 C

-0.6 C

-0.4 C

1.3 C

0 W/m

0.00 mm

11:15

1.5 C

998.5 hpa

82 %

6.4 km/h aus 117

11.3 km/h aus SSW

-1.2 C

-0.6 C

-0.4 C

1.3 C

0 W/m

0.00 mm

11:20

1.4 C

998.5 hpa

82 %

4.8 km/h aus 116

9.7 km/h aus SSW

-1.3 C

0.0 C

0.2 C

1.3 C

0 W/m

0.00 mm

11:25

1.5 C

998.5 hpa

81 %

6.4 km/h aus 117

11.3 km/h aus SSW

-1.4 C

-0.6 C

-0.4 C

1.3 C

0 W/m

0.00 mm

11:30

1.3 C

998.5 hpa

81 %

3.2 km/h aus 116

8.0 km/h aus SSW

-1.6 C

0.7 C

0.9 C

1.2 C

0 W/m

0.00 mm

11:35

1.3 C

998.5 hpa

81 %

6.4 km/h aus 116

12.9 km/h aus SSW

-1.6 C

-0.8 C

-0.7 C

1.2 C

0 W/m

0.00 mm

11:40

1.4 C

998.5 hpa

81 %

6.4 km/h aus 116

9.7 km/h aus SSW

-1.5 C

-0.7 C

-0.5 C

1.3 C

0 W/m

0.00 mm

11:45

1.6 C

998.5 hpa

82 %

4.8 km/h aus 116

14.5 km/h aus SSW

-1.2 C

0.1 C

0.3 C

1.4 C

0 W/m

0.00 mm

11:50

1.8 C

998.5 hpa

82 %

6.4 km/h aus 117

11.3 km/h aus SSW

-0.9 C

-0.2 C

-0.1 C

1.7 C

0 W/m

0.00 mm

11:55

2.3 C

998.5 hpa

81 %

11.3 km/h aus 117

17.7 km/h aus S

-0.6 C

-1.1 C

-0.9 C

2.1 C

0 W/m

0.00 mm

12:00

2.2 C

998.8 hpa

80 %

11.3 km/h aus 117

17.7 km/h aus SSE

-0.9 C

-1.2 C

-1.0 C

2.0 C

0 W/m

0.00 mm

12:05

2.2 C

998.8 hpa

80 %

11.3 km/h aus 116

22.5 km/h aus SSE

-0.9 C

-1.2 C

-1.0 C

2.0 C

0 W/m

0.00 mm

12:10

2.1 C

998.8 hpa

81 %

6.4 km/h aus 118

12.9 km/h aus SSE

-0.9 C

0.1 C

0.2 C

1.9 C

0 W/m

0.00 mm

12:15

2.1 C

998.6 hpa

80 %

4.8 km/h aus 116

14.5 km/h aus SSW

-1.0 C

0.7 C

0.8 C

1.9 C

0 W/m

0.00 mm

12:20

2.1 C

998.6 hpa

80 %

3.2 km/h aus 117

8.0 km/h aus SSW

-1.0 C

1.5 C

1.7 C

1.9 C

0 W/m

0.00 mm

12:25

2.6 C

998.6 hpa

80 %

8.0 km/h aus 117

14.5 km/h aus SSE

-0.5 C

0.2 C

0.3 C

2.4 C

0 W/m

0.00 mm

12:30

3.0 C

998.5 hpa

78 %

6.4 km/h aus 117

11.3 km/h aus SSE

-0.5 C

1.1 C

1.3 C

2.8 C

0 W/m

0.00 mm

12:35

3.0 C

998.5 hpa

78 %

9.7 km/h aus 115

17.7 km/h aus SSE

-0.5 C

0.2 C

0.4 C

2.8 C

0 W/m

0.00 mm

12:40

3.1 C

998.5 hpa

78 %

9.7 km/h aus 117

16.1 km/h aus S

-0.4 C

0.3 C

0.4 C

2.9 C

0 W/m

0.00 mm

12:45

3.2 C

998.5 hpa

78 %

9.7 km/h aus 117

17.7 km/h aus S

-0.2 C

0.4 C

0.6 C

3.1 C

0 W/m

0.00 mm

12:50

3.5 C

998.5 hpa

76 %

9.7 km/h aus 117

16.1 km/h aus SSE

-0.3 C

0.7 C

0.9 C

3.3 C

0 W/m

0.00 mm

12:55

3.4 C

998.5 hpa

76 %

8.0 km/h aus 117

16.1 km/h aus SSE

-0.4 C

1.1 C

1.3 C

3.2 C

0 W/m

0.00 mm

13:00

3.6 C

998.5 hpa

75 %

4.8 km/h aus 117

9.7 km/h aus SSE

-0.5 C

2.3 C

2.6 C

3.3 C

0 W/m

0.00 mm

13:05

3.7 C

998.5 hpa

74 %

1.6 km/h aus 117

8.0 km/h aus SSW

-0.5 C

3.4 C

3.7 C

3.4 C

0 W/m

0.00 mm

13:10

3.9 C

998.5 hpa

73 %

4.8 km/h aus 118

11.3 km/h aus SSW

-0.5 C

2.6 C

2.9 C

3.6 C

0 W/m

0.00 mm

13:15

4.1 C

998.4 hpa

74 %

12.9 km/h aus 117

17.7 km/h aus S

-0.1 C

0.8 C

1.1 C

3.8 C

0 W/m

0.00 mm

13:20

3.6 C

998.4 hpa

72 %

8.0 km/h aus 117

16.1 km/h aus S

-1.0 C

1.2 C

1.4 C

3.3 C

0 W/m

0.00 mm

13:25

3.3 C

998.4 hpa

73 %

6.4 km/h aus 117

14.5 km/h aus SSW

-1.1 C

1.3 C

1.6 C

3.0 C

0 W/m

0.00 mm

13:30

3.9 C

998.4 hpa

72 %

9.7 km/h aus 115

17.7 km/h aus SSE

-0.7 C

1.2 C

1.4 C

3.6 C

0 W/m

0.00 mm

13:35

3.7 C

998.4 hpa

74 %

8.0 km/h aus 117

12.9 km/h aus SSW

-0.5 C

1.4 C

1.6 C

3.5 C

0 W/m

0.00 mm

13:40

3.6 C

998.4 hpa

69 %

6.4 km/h aus 117

16.1 km/h aus SSW

-1.6 C

1.6 C

1.9 C

3.2 C

0 W/m

0.00 mm

13:45

3.9 C

998.4 hpa

72 %

11.3 km/h aus 117

17.7 km/h aus S

-0.6 C

0.9 C

1.2 C

3.7 C

0 W/m

0.00 mm

13:50

3.6 C

998.4 hpa

70 %

8.0 km/h aus 117

16.1 km/h aus SSW

-1.4 C

1.2 C

1.5 C

3.3 C

0 W/m

0.00 mm

13:55

3.4 C

998.4 hpa

73 %

11.3 km/h aus 117

16.1 km/h aus S

-1.0 C

0.2 C

0.4 C

3.1 C

0 W/m

0.00 mm

14:00

3.8 C

998.4 hpa

72 %

9.7 km/h aus 116

11.3 km/h aus S

-0.8 C

1.1 C

1.3 C

3.6 C

0 W/m

0.00 mm

14:05

4.2 C

998.4 hpa

72 %

11.3 km/h aus 117

17.7 km/h aus SSE

-0.4 C

1.1 C

1.4 C

3.9 C

0 W/m

0.00 mm

14:10

3.7 C

998.4 hpa

71 %

8.0 km/h aus 117

16.1 km/h aus S

-1.1 C

1.3 C

1.6 C

3.4 C

0 W/m

0.00 mm

14:15

3.3 C

998.4 hpa

74 %

11.3 km/h aus 118

16.1 km/h aus SSE

-0.9 C

0.1 C

0.3 C

3.1 C

0 W/m

0.00 mm

14:20

3.1 C

998.4 hpa

76 %

9.7 km/h aus 116

12.9 km/h aus SSE

-0.8 C

0.2 C

0.4 C

2.8 C

0 W/m

0.00 mm

14:25

3.0 C

998.4 hpa

76 %

9.7 km/h aus 117

16.1 km/h aus SSE

-0.8 C

0.2 C

0.4 C

2.8 C

0 W/m

0.00 mm

14:30

3.2 C

998.4 hpa

76 %

8.0 km/h aus 117

17.7 km/h aus SSE

-0.7 C

0.8 C

1.0 C

2.9 C

0 W/m

0.00 mm

14:35

3.4 C

998.4 hpa

75 %

14.5 km/h aus 117

22.5 km/h aus SSE

-0.6 C

-0.3 C

-0.1 C

3.2 C

0 W/m

0.00 mm

14:40

3.6 C

998.4 hpa

73 %

11.3 km/h aus 117

19.3 km/h aus S

-0.8 C

0.4 C

0.7 C

3.3 C

0 W/m

0.00 mm

14:45

3.4 C

998.0 hpa

71 %

9.7 km/h aus 116

16.1 km/h aus SSW

-1.3 C

0.6 C

0.9 C

3.1 C

0 W/m

0.00 mm

14:50

3.7 C

998.0 hpa

72 %

12.9 km/h aus 117

20.9 km/h aus SSE

-0.9 C

0.2 C

0.5 C

3.4 C

0 W/m

0.00 mm

14:55

3.8 C

998.0 hpa

72 %

17.7 km/h aus 117

22.5 km/h aus SSE

-0.8 C

-0.3 C

-0.1 C

3.6 C

0 W/m

0.00 mm

15:00

4.1 C

998.0 hpa

72 %

16.1 km/h aus 116

20.9 km/h aus SE

-0.5 C

0.2 C

0.4 C

3.8 C

0 W/m

0.00 mm

15:05

3.9 C

998.0 hpa

70 %

16.1 km/h aus 117

24.1 km/h aus SSE

-1.1 C

-0.1 C

0.2 C

3.6 C

0 W/m

0.00 mm

15:10

3.7 C

998.0 hpa

68 %

11.3 km/h aus 116

20.9 km/h aus S

-1.7 C

0.5 C

0.8 C

3.3 C

0 W/m

0.00 mm

15:15

3.6 C

997.9 hpa

71 %

9.7 km/h aus 117

14.5 km/h aus SSE

-1.2 C

0.7 C

1.1 C

3.2 C

0 W/m

0.00 mm

15:20

3.4 C

997.9 hpa

69 %

11.3 km/h aus 118

16.1 km/h aus SSE

-1.7 C

0.2 C

0.6 C

3.1 C

0 W/m

0.00 mm

15:25

3.6 C

997.9 hpa

72 %

8.0 km/h aus 116

12.9 km/h aus S

-1.0 C

1.2 C

1.5 C

3.3 C

0 W/m

0.00 mm

15:30

3.8 C

998.0 hpa

72 %

6.4 km/h aus 117

11.3 km/h aus S

-0.8 C

1.9 C

2.2 C

3.5 C

0 W/m

0.00 mm

15:35

3.7 C

998.0 hpa

71 %

8.0 km/h aus 117

14.5 km/h aus SE

-1.1 C

1.2 C

1.6 C

3.3 C

0 W/m

0.00 mm

15:40

3.5 C

998.0 hpa

72 %

4.8 km/h aus 116

8.0 km/h aus SE

-1.1 C

2.2 C

2.4 C

3.2 C

0 W/m

0.00 mm

15:45

3.5 C

997.8 hpa

73 %

4.8 km/h aus 117

9.7 km/h aus SE

-0.9 C

2.2 C

2.4 C

3.2 C

0 W/m

0.00 mm

15:50

3.7 C

997.8 hpa

72 %

6.4 km/h aus 117

11.3 km/h aus SE

-0.9 C

1.8 C

2.1 C

3.4 C

0 W/m

0.00 mm

15:55

3.8 C

997.8 hpa

73 %

4.8 km/h aus 117

8.0 km/h aus SSE

-0.6 C

2.5 C

2.8 C

3.5 C

0 W/m

0.00 mm

16:00

3.8 C

997.5 hpa

72 %

6.4 km/h aus 117

11.3 km/h aus SSE

-0.8 C

1.9 C

2.2 C

3.5 C

0 W/m

0.00 mm

16:05

3.6 C

997.5 hpa

71 %

8.0 km/h aus 116

12.9 km/h aus SSE

-1.2 C

1.2 C

1.5 C

3.3 C

0 W/m

0.00 mm

16:10

3.3 C

997.5 hpa

73 %

6.4 km/h aus 117

9.7 km/h aus SSE

-1.1 C

1.3 C

1.6 C

3.0 C

0 W/m

0.00 mm

16:15

2.9 C

997.6 hpa

73 %

8.0 km/h aus 116

14.5 km/h aus SSE

-1.4 C

0.4 C

0.7 C

2.7 C

0 W/m

0.00 mm

16:20

2.7 C

997.6 hpa

75 %

6.4 km/h aus 117

9.7 km/h aus SSE

-1.3 C

0.7 C

0.9 C

2.5 C

0 W/m

0.00 mm

16:25

2.6 C

997.6 hpa

76 %

6.4 km/h aus 118

9.7 km/h aus SSE

-1.3 C

0.6 C

0.8 C

2.3 C

0 W/m

0.00 mm

16:30

2.5 C

997.6 hpa

77 %

4.8 km/h aus 116

8.0 km/h aus SSE

-1.1 C

1.1 C

1.3 C

2.3 C

0 W/m

0.00 mm

16:35

2.6 C

997.6 hpa

77 %

3.2 km/h aus 116

6.4 km/h aus SSE

-1.1 C

2.0 C

2.2 C

2.3 C

0 W/m

0.00 mm

16:40

2.6 C

997.6 hpa

78 %

1.6 km/h aus 117

6.4 km/h aus SSE

-0.9 C

2.4 C

2.6 C

2.4 C

0 W/m

0.00 mm

16:45

2.6 C

997.4 hpa

77 %

1.6 km/h aus 117

4.8 km/h aus SSE

-1.0 C

2.4 C

2.6 C

2.4 C

0 W/m

0.00 mm

16:50

2.7 C

997.4 hpa

75 %

4.8 km/h aus 116

8.0 km/h aus SSE

-1.3 C

1.4 C

1.6 C

2.5 C

0 W/m

0.00 mm

16:55

2.7 C

997.4 hpa

75 %

3.2 km/h aus 117

8.0 km/h aus SSE

-1.3 C

2.2 C

2.4 C

2.5 C

0 W/m

0.00 mm

17:00

2.7 C

997.3 hpa

75 %

3.2 km/h aus 117

4.8 km/h aus SSE

-1.3 C

2.2 C

2.4 C

2.5 C

0 W/m

0.00 mm

17:05

2.8 C

997.3 hpa

74 %

3.2 km/h aus 117

6.4 km/h aus SSE

-1.4 C

2.3 C

2.5 C

2.6 C

0 W/m

0.00 mm

17:10

2.6 C

997.3 hpa

75 %

3.2 km/h aus 117

6.4 km/h aus SSE

-1.4 C

2.0 C

2.2 C

2.3 C

0 W/m

0.00 mm

17:15

2.4 C

997.3 hpa

76 %

3.2 km/h aus 117

6.4 km/h aus SSE

-1.4 C

1.8 C

2.1 C

2.2 C

0 W/m

0.00 mm

17:20

2.3 C

997.3 hpa

76 %

3.2 km/h aus 117

6.4 km/h aus SSE

-1.5 C

1.7 C

1.9 C

2.1 C

0 W/m

0.00 mm

17:25

2.1 C

997.3 hpa

76 %

4.8 km/h aus 118

8.0 km/h aus SSE

-1.7 C

0.7 C

0.9 C

1.9 C

0 W/m

0.00 mm

17:30

2.1 C

997.1 hpa

76 %

4.8 km/h aus 117

8.0 km/h aus SE

-1.7 C

0.6 C

0.8 C

1.8 C

0 W/m

0.00 mm

17:35

2.0 C

997.1 hpa

76 %

3.2 km/h aus 117

6.4 km/h aus SE

-1.8 C

1.4 C

1.6 C

1.8 C

0 W/m

0.00 mm

17:40

1.9 C

997.1 hpa

76 %

3.2 km/h aus 117

6.4 km/h aus SE

-1.8 C

1.3 C

1.6 C

1.7 C

0 W/m

0.00 mm

17:45

1.9 C

997.1 hpa

77 %

3.2 km/h aus 117

6.4 km/h aus SE

-1.7 C

1.3 C

1.6 C

1.7 C

0 W/m

0.00 mm

17:50

1.9 C

997.1 hpa

77 %

4.8 km/h aus 117

9.7 km/h aus SE

-1.7 C

0.5 C

0.7 C

1.7 C

0 W/m

0.00 mm

17:55

1.9 C

997.1 hpa

78 %

6.4 km/h aus 117

11.3 km/h aus SE

-1.5 C

-0.2 C

0.0 C

1.7 C

0 W/m

0.00 mm

18:00

1.8 C

997.1 hpa

79 %

4.8 km/h aus 116

9.7 km/h aus ESE

-1.5 C

0.3 C

0.5 C

1.6 C

0 W/m

0.00 mm

18:05

1.7 C

997.1 hpa

79 %

6.4 km/h aus 117

12.9 km/h aus SE

-1.5 C

-0.3 C

-0.2 C

1.6 C

0 W/m

0.00 mm

18:10

1.7 C

997.1 hpa

79 %

6.4 km/h aus 115

14.5 km/h aus ESE

-1.5 C

-0.3 C

-0.2 C

1.6 C

0 W/m

0.00 mm

18:15

1.7 C

996.9 hpa

80 %

8.0 km/h aus 116

16.1 km/h aus ESE

-1.4 C

-0.9 C

-0.8 C

1.5 C

0 W/m

0.00 mm

18:20

1.7 C

996.9 hpa

80 %

9.7 km/h aus 117

17.7 km/h aus ESE

-1.4 C

-1.3 C

-1.2 C

1.6 C

0 W/m

0.00 mm

18:25

1.8 C

996.9 hpa

80 %

11.3 km/h aus 116

19.3 km/h aus SE

-1.3 C

-1.6 C

-1.4 C

1.7 C

0 W/m

0.00 mm

18:30

1.9 C

996.8 hpa

80 %

8.0 km/h aus 117

19.3 km/h aus E

-1.2 C

-0.7 C

-0.5 C

1.7 C

0 W/m

0.00 mm

18:35

1.9 C

996.8 hpa

80 %

8.0 km/h aus 116

11.3 km/h aus ESE

-1.2 C

-0.7 C

-0.5 C

1.7 C

0 W/m

0.00 mm

18:40

1.8 C

996.8 hpa

80 %

6.4 km/h aus 116

12.9 km/h aus ESE

-1.3 C

-0.2 C

-0.1 C

1.7 C

0 W/m

0.00 mm

18:45

1.8 C

996.6 hpa

80 %

4.8 km/h aus 116

11.3 km/h aus ESE

-1.3 C

0.3 C

0.5 C

1.6 C

0 W/m

0.00 mm

18:50

1.8 C

996.6 hpa

80 %

4.8 km/h aus 116

11.3 km/h aus ESE

-1.3 C

0.3 C

0.5 C

1.6 C

0 W/m

0.00 mm

18:55

1.8 C

996.6 hpa

80 %

4.8 km/h aus 116

12.9 km/h aus ESE

-1.3 C

0.3 C

0.5 C

1.6 C

0 W/m

0.00 mm

19:00

1.8 C

996.7 hpa

80 %

6.4 km/h aus 117

11.3 km/h aus ESE

-1.3 C

-0.3 C

-0.1 C

1.6 C

0 W/m

0.00 mm

19:05

1.8 C

996.7 hpa

81 %

8.0 km/h aus 116

14.5 km/h aus ESE

-1.1 C

-0.7 C

-0.6 C

1.7 C

0 W/m

0.00 mm

19:10

1.9 C

996.7 hpa

81 %

8.0 km/h aus 117

16.1 km/h aus ESE

-1.0 C

-0.7 C

-0.5 C

1.7 C

0 W/m

0.00 mm

19:15

1.9 C

996.4 hpa

81 %

8.0 km/h aus 117

14.5 km/h aus ESE

-1.0 C

-0.7 C

-0.5 C

1.7 C

0 W/m

0.00 mm

19:20

1.9 C

996.4 hpa

81 %

6.4 km/h aus 116

14.5 km/h aus ESE

-1.0 C

-0.2 C

0.0 C

1.7 C

0 W/m

0.00 mm

19:25

1.8 C

996.4 hpa

81 %

6.4 km/h aus 117

14.5 km/h aus ESE

-1.1 C

-0.2 C

-0.1 C

1.7 C

0 W/m

0.00 mm

19:30

1.8 C

996.4 hpa

82 %

8.0 km/h aus 115

16.1 km/h aus SE

-0.9 C

-0.7 C

-0.6 C

1.7 C

0 W/m

0.00 mm

19:35

1.8 C

996.4 hpa

82 %

8.0 km/h aus 118

16.1 km/h aus E

-0.9 C

-0.7 C

-0.6 C

1.7 C

0 W/m

0.00 mm

19:40

1.9 C

996.4 hpa

82 %

9.7 km/h aus 115

17.7 km/h aus E

-0.8 C

-1.1 C

-0.9 C

1.8 C

0 W/m

0.00 mm

19:45

1.9 C

996.0 hpa

82 %

8.0 km/h aus 116

19.3 km/h aus E

-0.8 C

-0.6 C

-0.4 C

1.8 C

0 W/m

0.00 mm

19:50

1.9 C

996.0 hpa

82 %

11.3 km/h aus 117

19.3 km/h aus ESE

-0.8 C

-1.4 C

-1.3 C

1.8 C

0 W/m

0.00 mm

19:55

1.9 C

996.0 hpa

82 %

11.3 km/h aus 116

19.3 km/h aus ESE

-0.8 C

-1.4 C

-1.3 C

1.8 C

0 W/m

0.00 mm

20:00

1.9 C

996.0 hpa

82 %

11.3 km/h aus 117

17.7 km/h aus ESE

-0.8 C

-1.4 C

-1.3 C

1.8 C

0 W/m

0.00 mm

20:05

1.9 C

996.0 hpa

82 %

12.9 km/h aus 117

19.3 km/h aus E

-0.8 C

-1.8 C

-1.6 C

1.8 C

0 W/m

0.00 mm

20:10

1.9 C

996.0 hpa

82 %

12.9 km/h aus 117

19.3 km/h aus ESE

-0.8 C

-1.8 C

-1.6 C

1.8 C

0 W/m

0.00 mm

20:15

1.9 C

995.8 hpa

82 %

12.9 km/h aus 117

24.1 km/h aus E

-0.8 C

-1.8 C

-1.6 C

1.8 C

0 W/m

0.00 mm

20:20

1.9 C

995.8 hpa

82 %

12.9 km/h aus 117

22.5 km/h aus ESE

-0.9 C

-1.8 C

-1.7 C

1.7 C

0 W/m

0.00 mm

20:25

1.8 C

995.8 hpa

82 %

11.3 km/h aus 116

22.5 km/h aus SE

-1.0 C

-1.6 C

-1.4 C

1.6 C

0 W/m

0.00 mm

20:30

1.7 C

995.4 hpa

82 %

12.9 km/h aus 115

24.1 km/h aus E

-1.1 C

-2.1 C

-1.9 C

1.5 C

0 W/m

0.00 mm

20:35

1.7 C

995.4 hpa

83 %

12.9 km/h aus 115

27.4 km/h aus ESE

-0.9 C

-2.1 C

-1.9 C

1.6 C

0 W/m

0.00 mm

20:40

1.7 C

995.4 hpa

83 %

12.9 km/h aus 118

24.1 km/h aus E

-0.9 C

-2.1 C

-1.9 C

1.6 C

0 W/m

0.00 mm

20:45

1.7 C

995.3 hpa

83 %

12.9 km/h aus 116

22.5 km/h aus E

-0.9 C

-2.1 C

-1.9 C

1.6 C

0 W/m

0.00 mm

20:50

1.7 C

995.3 hpa

82 %

14.5 km/h aus 116

25.7 km/h aus SE

-1.0 C

-2.3 C

-2.2 C

1.6 C

0 W/m

0.00 mm

20:55

1.8 C

995.3 hpa

82 %

14.5 km/h aus 117

24.1 km/h aus ESE

-0.9 C

-2.2 C

-2.1 C

1.7 C

0 W/m

0.00 mm

21:00

1.9 C

995.3 hpa

82 %

14.5 km/h aus 116

24.1 km/h aus E

-0.9 C

-2.2 C

-2.0 C

1.7 C

0 W/m

0.00 mm

21:05

1.9 C

995.3 hpa

82 %

11.3 km/h aus 116

20.9 km/h aus SE

-0.8 C

-1.4 C

-1.3 C

1.8 C

0 W/m

0.00 mm

21:10

1.9 C

995.3 hpa

82 %

11.3 km/h aus 116

20.9 km/h aus ESE

-0.8 C

-1.4 C

-1.3 C

1.8 C

0 W/m

0.00 mm

21:15

2.0 C

995.3 hpa

81 %

12.9 km/h aus 117

22.5 km/h aus ESE

-0.9 C

-1.7 C

-1.6 C

1.8 C

0 W/m

0.00 mm

21:20

2.1 C

995.3 hpa

81 %

11.3 km/h aus 115

17.7 km/h aus SSE

-0.9 C

-1.3 C

-1.1 C

1.9 C

0 W/m

0.00 mm

21:25

2.1 C

995.3 hpa

81 %

11.3 km/h aus 117

19.3 km/h aus SSE

-0.8 C

-1.2 C

-1.1 C

1.9 C

0 W/m

0.00 mm

21:30

2.1 C

995.3 hpa

81 %

11.3 km/h aus 117

20.9 km/h aus E

-0.8 C

-1.2 C

-1.1 C

1.9 C

0 W/m

0.00 mm

21:35

2.1 C

995.3 hpa

81 %

9.7 km/h aus 117

17.7 km/h aus ESE

-0.9 C

-0.9 C

-0.8 C

1.9 C

0 W/m

0.00 mm

21:40

2.1 C

995.3 hpa

81 %

11.3 km/h aus 117

20.9 km/h aus ESE

-0.9 C

-1.3 C

-1.1 C

1.9 C

0 W/m

0.00 mm

21:45

2.1 C

995.3 hpa

81 %

14.5 km/h aus 118

24.1 km/h aus SSE

-0.8 C

-1.9 C

-1.7 C

1.9 C

0 W/m

0.00 mm

21:50

2.1 C

995.3 hpa

80 %

14.5 km/h aus 117

22.5 km/h aus SE

-1.0 C

-1.9 C

-1.7 C

1.9 C

0 W/m

0.00 mm

21:55

2.2 C

995.3 hpa

80 %

14.5 km/h aus 116

24.1 km/h aus ESE

-0.9 C

-1.8 C

-1.6 C

2.0 C

0 W/m

0.00 mm

22:00

2.2 C

995.0 hpa

80 %

12.9 km/h aus 116

22.5 km/h aus SE

-0.9 C

-1.5 C

-1.3 C

2.0 C

0 W/m

0.00 mm

22:05

2.2 C

995.0 hpa

80 %

14.5 km/h aus 117

24.1 km/h aus SE

-0.9 C

-1.8 C

-1.6 C

2.0 C

0 W/m

0.00 mm

22:10

2.2 C

995.0 hpa

80 %

14.5 km/h aus 117

27.4 km/h aus SE

-0.9 C

-1.8 C

-1.6 C

2.0 C

0 W/m

0.00 mm

22:15

2.2 C

994.8 hpa

80 %

14.5 km/h aus 115

25.7 km/h aus SE

-0.9 C

-1.8 C

-1.6 C

2.0 C

0 W/m

0.00 mm

22:20

2.2 C

994.8 hpa

81 %

16.1 km/h aus 117

29.0 km/h aus SE

-0.8 C

-2.1 C

-1.9 C

2.0 C

0 W/m

0.00 mm

22:25

2.2 C

994.8 hpa

81 %

14.5 km/h aus 117

25.7 km/h aus ESE

-0.8 C

-1.8 C

-1.6 C

2.0 C

0 W/m

0.00 mm

22:30

2.2 C

994.7 hpa

81 %

14.5 km/h aus 117

22.5 km/h aus SE

-0.7 C

-1.7 C

-1.6 C

2.1 C

0 W/m

0.00 mm

22:35

2.2 C

994.7 hpa

81 %

12.9 km/h aus 117

22.5 km/h aus ESE

-0.7 C

-1.4 C

-1.3 C

2.1 C

0 W/m

0.00 mm

22:40

2.2 C

994.7 hpa

81 %

14.5 km/h aus 114

27.4 km/h aus SE

-0.7 C

-1.7 C

-1.6 C

2.1 C

0 W/m

0.00 mm

22:45

2.2 C

994.6 hpa

81 %

14.5 km/h aus 117

24.1 km/h aus SE

-0.7 C

-1.7 C

-1.6 C

2.1 C

0 W/m

0.00 mm

22:50

2.2 C

994.6 hpa

81 %

14.5 km/h aus 116

25.7 km/h aus SSE

-0.7 C

-1.7 C

-1.6 C

2.1 C

0 W/m

0.00 mm

22:55

2.2 C

994.6 hpa

82 %

14.5 km/h aus 117

24.1 km/h aus SSE

-0.6 C

-1.8 C

-1.6 C

2.0 C

0 W/m

0.00 mm

23:00

2.2 C

994.3 hpa

82 %

14.5 km/h aus 117

29.0 km/h aus SE

-0.6 C

-1.8 C

-1.6 C

2.0 C

0 W/m

0.00 mm

23:05

2.2 C

994.3 hpa

82 %

12.9 km/h aus 117

22.5 km/h aus E

-0.6 C

-1.5 C

-1.3 C

2.0 C

0 W/m

0.00 mm

23:10

2.2 C

994.3 hpa

82 %

14.5 km/h aus 117

27.4 km/h aus SE

-0.6 C

-1.8 C

-1.6 C

2.0 C

0 W/m

0.00 mm

23:15

2.1 C

994.3 hpa

82 %

12.9 km/h aus 117

25.7 km/h aus SSE

-0.6 C

-1.6 C

-1.4 C

1.9 C

0 W/m

0.00 mm

23:20

2.1 C

994.3 hpa

83 %

11.3 km/h aus 116

19.3 km/h aus ESE

-0.5 C

-1.2 C

-1.1 C

1.9 C

0 W/m

0.00 mm

23:25

2.0 C

994.3 hpa

83 %

9.7 km/h aus 116

19.3 km/h aus ESE

-0.6 C

-0.9 C

-0.8 C

1.9 C

0 W/m

0.00 mm

23:30

1.9 C

994.2 hpa

83 %

9.7 km/h aus 117

19.3 km/h aus E

-0.6 C

-1.0 C

-0.9 C

1.8 C

0 W/m

0.00 mm

23:35

1.9 C

994.2 hpa

83 %

9.7 km/h aus 117

17.7 km/h aus ESE

-0.7 C

-1.1 C

-0.9 C

1.8 C

0 W/m

0.00 mm

23:40

1.9 C

994.2 hpa

83 %

6.4 km/h aus 117

16.1 km/h aus ESE

-0.6 C

-0.1 C

0.1 C

1.8 C

0 W/m

0.00 mm

23:45

1.8 C

994.1 hpa

84 %

3.2 km/h aus 117

9.7 km/h aus ESE

-0.6 C

1.3 C

1.4 C

1.7 C

0 W/m

0.00 mm

23:50

1.8 C

994.1 hpa

84 %

6.4 km/h aus 117

14.5 km/h aus ESE

-0.6 C

-0.2 C

-0.1 C

1.7 C

0 W/m

0.00 mm

23:55

1.8 C

994.1 hpa

84 %

8.0 km/h aus 117

19.3 km/h aus SSE

-0.6 C

-0.7 C

-0.6 C

1.7 C

0 W/m

0.00 mm